TimeCDT,TemperatureF,Dew PointF,Humidity,Sea Level PressureIn,VisibilityMPH,Wind Direction,Wind SpeedMPH,Gust SpeedMPH,PrecipitationIn,Events,Conditions,WindDirDegrees,DateUTC
12:15 AM,48.2,37.4,66,30.21,10.0,Calm,Calm,-,N/A,,Clear,0,2013-05-12 05:15:00
12:35 AM,48.2,39.2,71,30.21,10.0,Calm,Calm,-,N/A,,Clear,0,2013-05-12 05:35:00
12:55 AM,46.4,37.4,71,30.22,10.0,Calm,Calm,-,N/A,,Clear,0,2013-05-12 05:55:00
1:15 AM,46.4,39.2,76,30.22,10.0,Calm,Calm,-,N/A,,Clear,0,2013-05-12 06:15:00
1:35 AM,50.0,35.6,58,30.22,10.0,North,4.6,-,N/A,,Clear,10,2013-05-12 06:35:00
1:55 AM,48.2,35.6,62,30.22,10.0,North,5.8,-,N/A,,Clear,360,2013-05-12 06:55:00
2:15 AM,48.2,35.6,62,30.21,10.0,North,4.6,-,N/A,,Clear,360,2013-05-12 07:15:00
2:35 AM,48.2,33.8,58,30.21,10.0,North,5.8,-,N/A,,Clear,10,2013-05-12 07:35:00
2:55 AM,46.4,35.6,66,30.21,10.0,North,6.9,-,N/A,,Clear,10,2013-05-12 07:55:00
3:15 AM,46.4,35.6,66,30.21,10.0,NNE,4.6,-,N/A,,Clear,20,2013-05-12 08:15:00
3:35 AM,46.4,33.8,62,30.21,10.0,NE,5.8,-,N/A,,Clear,50,2013-05-12 08:35:00
3:55 AM,44.6,33.8,66,30.22,10.0,NNE,5.8,-,N/A,,Clear,30,2013-05-12 08:55:00
4:35 AM,44.6,35.6,71,30.22,10.0,NNE,3.5,-,N/A,,Clear,20,2013-05-12 09:35:00
4:55 AM,44.6,33.8,66,30.23,10.0,NNE,3.5,-,N/A,,Clear,30,2013-05-12 09:55:00
5:15 AM,42.8,33.8,70,30.23,10.0,NNE,4.6,-,N/A,,Clear,20,2013-05-12 10:15:00
5:35 AM,42.8,35.6,76,30.23,10.0,Calm,Calm,-,N/A,,Clear,0,2013-05-12 10:35:00
5:55 AM,42.8,33.8,70,30.22,10.0,NNE,3.5,-,N/A,,Clear,20,2013-05-12 10:55:00
6:15 AM,41.0,33.8,76,30.23,10.0,Calm,Calm,-,N/A,,Clear,0,2013-05-12 11:15:00
6:35 AM,39.2,35.6,87,30.24,10.0,Calm,Calm,-,N/A,,Clear,0,2013-05-12 11:35:00
6:55 AM,41.0,35.6,81,30.25,10.0,Calm,Calm,-,N/A,,Clear,0,2013-05-12 11:55:00
7:15 AM,44.6,37.4,76,30.26,10.0,Calm,Calm,-,N/A,,Clear,0,2013-05-12 12:15:00
7:35 AM,46.4,37.4,71,30.26,10.0,Calm,Calm,-,N/A,,Clear,0,2013-05-12 12:35:00
7:55 AM,48.2,37.4,66,30.27,10.0,SE,3.5,-,N/A,,Clear,140,2013-05-12 12:55:00
8:15 AM,51.8,37.4,58,30.27,10.0,ESE,3.5,-,N/A,,Clear,110,2013-05-12 13:15:00
8:35 AM,53.6,35.6,51,30.27,10.0,ESE,6.9,-,N/A,,Clear,120,2013-05-12 13:35:00
8:55 AM,53.6,33.8,47,30.27,10.0,ESE,9.2,-,N/A,,Clear,120,2013-05-12 13:55:00
9:15 AM,55.4,33.8,44,30.27,10.0,ESE,6.9,-,N/A,,Clear,110,2013-05-12 14:15:00
9:35 AM,57.2,32.0,38,30.27,10.0,East,6.9,-,N/A,,Clear,90,2013-05-12 14:35:00
9:55 AM,57.2,32.0,38,30.28,10.0,East,4.6,-,N/A,,Clear,90,2013-05-12 14:55:00
10:15 AM,57.2,30.2,36,30.28,10.0,Calm,Calm,-,N/A,,Clear,0,2013-05-12 15:15:00
10:35 AM,57.2,28.4,33,30.27,10.0,WNW,3.5,-,N/A,,Clear,300,2013-05-12 15:35:00
10:55 AM,59.0,32.0,36,30.27,10.0,West,3.5,-,N/A,,Clear,280,2013-05-12 15:55:00
11:15 AM,60.8,30.2,31,30.27,10.0,NE,9.2,-,N/A,,Clear,50,2013-05-12 16:15:00
11:35 AM,60.8,30.2,31,30.27,10.0,North,9.2,-,N/A,,Clear,360,2013-05-12 16:35:00
11:55 AM,60.8,30.2,31,30.27,10.0,East,4.6,-,N/A,,Clear,80,2013-05-12 16:55:00
12:15 PM,62.6,30.2,30,30.26,10.0,ENE,4.6,-,N/A,,Clear,70,2013-05-12 17:15:00
12:35 PM,62.6,33.8,34,30.25,10.0,North,6.9,-,N/A,,Clear,360,2013-05-12 17:35:00
12:55 PM,64.4,33.8,32,30.24,10.0,Calm,Calm,-,N/A,,Clear,0,2013-05-12 17:55:00
1:15 PM,64.4,28.4,26,30.24,10.0,NE,8.1,-,N/A,,Clear,40,2013-05-12 18:15:00
1:35 PM,64.4,30.2,28,30.24,10.0,North,9.2,-,N/A,,Clear,360,2013-05-12 18:35:00
1:55 PM,64.4,30.2,28,30.23,10.0,North,8.1,-,N/A,,Clear,350,2013-05-12 18:55:00
2:15 PM,64.4,32.0,30,30.22,10.0,North,10.4,-,N/A,,Clear,10,2013-05-12 19:15:00
2:35 PM,66.2,30.2,26,30.22,10.0,North,8.1,-,N/A,,Clear,360,2013-05-12 19:35:00
2:55 PM,66.2,32.0,28,30.21,10.0,NNE,5.8,-,N/A,,Clear,20,2013-05-12 19:55:00
3:15 PM,66.2,33.8,30,30.21,10.0,Calm,Calm,-,N/A,,Clear,0,2013-05-12 20:15:00
3:35 PM,66.2,33.8,30,30.20,10.0,WNW,3.5,-,N/A,,Clear,300,2013-05-12 20:35:00
3:55 PM,64.4,32.0,30,30.21,10.0,NNE,6.9,-,N/A,,Clear,20,2013-05-12 20:55:00
4:15 PM,64.4,33.8,32,30.21,10.0,Calm,Calm,-,N/A,,Partly Cloudy,0,2013-05-12 21:15:00
4:35 PM,64.4,33.8,32,30.21,10.0,North,3.5,-,N/A,,Mostly Cloudy,360,2013-05-12 21:35:00
4:55 PM,64.4,33.8,32,30.21,10.0,Calm,Calm,-,N/A,,Overcast,0,2013-05-12 21:55:00
5:15 PM,64.4,33.8,32,30.21,10.0,WNW,4.6,-,N/A,,Overcast,290,2013-05-12 22:15:00
5:35 PM,62.6,33.8,34,30.21,10.0,NW,6.9,-,N/A,,Overcast,310,2013-05-12 22:35:00
5:55 PM,62.6,35.6,37,30.20,10.0,North,6.9,-,N/A,,Mostly Cloudy,350,2013-05-12 22:55:00
6:15 PM,60.8,39.2,45,30.18,10.0,Calm,Calm,-,N/A,,Partly Cloudy,0,2013-05-12 23:15:00
6:35 PM,60.8,42.8,52,30.16,10.0,Calm,Calm,-,N/A,,Clear,0,2013-05-12 23:35:00
6:55 PM,60.8,39.2,45,30.16,10.0,Calm,Calm,-,N/A,,Scattered Clouds,0,2013-05-12 23:55:00
7:15 PM,60.8,44.6,55,30.15,10.0,SSW,4.6,-,N/A,,Mostly Cloudy,210,2013-05-13 00:15:00
7:35 PM,60.8,42.8,52,30.15,10.0,Calm,Calm,-,N/A,,Mostly Cloudy,0,2013-05-13 00:35:00
7:55 PM,59.0,44.6,59,30.16,10.0,WNW,3.5,-,N/A,,Mostly Cloudy,290,2013-05-13 00:55:00
8:15 PM,59.0,42.8,55,30.16,10.0,North,5.8,-,N/A,,Overcast,10,2013-05-13 01:15:00
8:35 PM,57.2,44.6,63,30.17,10.0,NNE,6.9,-,N/A,,Overcast,20,2013-05-13 01:35:00
8:55 PM,57.2,42.8,59,30.16,10.0,Calm,Calm,-,N/A,,Overcast,0,2013-05-13 01:55:00
9:15 PM,55.4,42.8,63,30.17,10.0,Calm,Calm,-,N/A,,Scattered Clouds,0,2013-05-13 02:15:00
9:35 PM,57.2,42.8,59,30.17,10.0,Calm,Calm,-,N/A,,Partly Cloudy,0,2013-05-13 02:35:00
9:55 PM,55.4,42.8,63,30.18,10.0,ENE,3.5,-,N/A,,Mostly Cloudy,60,2013-05-13 02:55:00
10:15 PM,55.4,42.8,63,30.18,10.0,ENE,4.6,-,N/A,,Partly Cloudy,60,2013-05-13 03:15:00
10:35 PM,55.4,41.0,58,30.18,10.0,East,4.6,-,N/A,,Clear,80,2013-05-13 03:35:00
10:55 PM,53.6,41.0,62,30.17,10.0,East,4.6,-,N/A,,Clear,80,2013-05-13 03:55:00
11:15 PM,53.6,41.0,62,30.17,10.0,East,3.5,-,N/A,,Clear,90,2013-05-13 04:15:00
11:35 PM,53.6,42.8,67,30.17,10.0,Calm,Calm,-,N/A,,Clear,0,2013-05-13 04:35:00
11:55 PM,53.6,42.8,67,30.17,10.0,ESE,3.5,-,N/A,,Clear,110,2013-05-13 04:55:00